• în Republica Moldova
  • Lista ţărilor
  • Pe 7 zile
  • Temperatura apei
  • Hartă satelitară
  • Meteo pe hartă
  • Widget-uri
  • user-avatar
    Intrare

    Meteo pe oră la Yevlakh

    Astăzi, 16 Ianuarie, Luni

    Timp Temperatura Precipitaţii Vânt Presiune Umiditate
    00:00 +2°C° 0 mm 1 m/s 764 mmHg 91%
    01:00 +2°C° 0 mm 1 m/s 764 mmHg 91%
    02:00 +1°C° 0 mm 0 m/s 764 mmHg 92%
    03:00 +1°C° 0 mm 0 m/s 764 mmHg 90%
    04:00 +1°C° 0 mm 0 m/s 764 mmHg 90%
    05:00 +1°C° 0 mm 0 m/s 765 mmHg 90%
    06:00 +1°C° 0 mm 0 m/s 765 mmHg 90%
    07:00 +2°C° 0 mm 0 m/s 765 mmHg 83%
    08:00 +3°C° 0 mm 0 m/s 765 mmHg 77%
    09:00 +5°C° 0 mm 0 m/s 765 mmHg 64%
    10:00 +6°C° 0 mm 0 m/s 765 mmHg 59%
    11:00 +7°C° 0 mm 0 m/s 765 mmHg 53%
    12:00 +10°C° 0 mm 1 m/s 765 mmHg 47%
    13:00 +10°C° 0 mm 1 m/s 765 mmHg 46%
    14:00 +10°C° 0 mm 1 m/s 765 mmHg 45%
    15:00 +9°C° 0 mm 0 m/s 764 mmHg 44%
    16:00 +8°C° 0 mm 1 m/s 765 mmHg 52%
    17:00 +7°C° 0 mm 1 m/s 765 mmHg 60%
    18:00 +5°C° 0 mm 1 m/s 766 mmHg 68%
    19:00 +4°C° 0 mm 1 m/s 766 mmHg 70%
    20:00 +4°C° 0 mm 1 m/s 766 mmHg 71%
    21:00 +4°C° 0 mm 1 m/s 767 mmHg 73%
    22:00 +4°C° 0 mm 1 m/s 767 mmHg 74%
    23:00 +4°C° 0 mm 1 m/s 767 mmHg 75%

    Mâine, 17 Ianuarie, Marţi

    Timp Temperatura Precipitaţii Vânt Presiune Umiditate
    00:00 +3°C° 0 mm 1 m/s 767 mmHg 76%
    01:00 +3°C° 0 mm 1 m/s 767 mmHg 77%
    02:00 +3°C° 0 mm 1 m/s 767 mmHg 78%
    03:00 +2°C° 0 mm 1 m/s 767 mmHg 79%
    04:00 +2°C° 0 mm 1 m/s 767 mmHg 80%
    05:00 +1°C° 0 mm 0 m/s 767 mmHg 81%
    06:00 +1°C° 0 mm 0 m/s 767 mmHg 82%
    07:00 +2°C° 0 mm 0 m/s 767 mmHg 75%
    08:00 +4°C° 0 mm 0 m/s 767 mmHg 67%
    09:00 +5°C° 0 mm 0 m/s 768 mmHg 60%
    10:00 +6°C° 0 mm 0 m/s 767 mmHg 56%
    11:00 +9°C° 0 mm 1 m/s 767 mmHg 52%
    12:00 +10°C° 0 mm 1 m/s 766 mmHg 49%
    13:00 +10°C° 0 mm 1 m/s 766 mmHg 48%
    14:00 +10°C° 0 mm 1 m/s 766 mmHg 47%
    15:00 +10°C° 0 mm 1 m/s 766 mmHg 46%
    16:00 +9°C° 0 mm 1 m/s 766 mmHg 55%
    17:00 +6°C° 0 mm 0 m/s 766 mmHg 63%
    18:00 +4°C° 0 mm 0 m/s 767 mmHg 71%
    19:00 +4°C° 0 mm 1 m/s 767 mmHg 73%
    20:00 +4°C° 0 mm 1 m/s 767 mmHg 75%
    21:00 +4°C° 0 mm 1 m/s 767 mmHg 77%
    22:00 +4°C° 0 mm 1 m/s 767 mmHg 80%
    23:00 +3°C° 0 mm 1 m/s 767 mmHg 83%

    Poimâine, 18 Ianuarie, Miercuri

    Timp Temperatura Precipitaţii Vânt Presiune Umiditate
    00:00 +3°C° 0 mm 1 m/s 767 mmHg 85%
    01:00 +3°C° 0 mm 1 m/s 767 mmHg 86%
    02:00 +2°C° 0 mm 1 m/s 767 mmHg 87%
    03:00 +1°C° 0 mm 0 m/s 767 mmHg 88%
    04:00 +1°C° 0 mm 0 m/s 767 mmHg 89%
    05:00 +1°C° 0 mm 0 m/s 767 mmHg 89%
    06:00 0°C° 0 mm 0 m/s 767 mmHg 90%
    07:00 +2°C° 0 mm 0 m/s 767 mmHg 86%
    08:00 +5°C° 0 mm 1 m/s 767 mmHg 81%
    09:00 +6°C° 0 mm 1 m/s 767 mmHg 77%
    10:00 +7°C° 0 mm 1 m/s 767 mmHg 73%
    11:00 +8°C° 0 mm 1 m/s 767 mmHg 68%
    12:00 +10°C° 0 mm 1 m/s 766 mmHg 64%
    13:00 +10°C° 0 mm 1 m/s 766 mmHg 63%
    14:00 +10°C° 0 mm 1 m/s 766 mmHg 62%
    15:00 +10°C° 0 mm 1 m/s 766 mmHg 62%
    16:00 +8°C° 0 mm 1 m/s 766 mmHg 70%
    17:00 +7°C° 0 mm 1 m/s 767 mmHg 78%
    18:00 +5°C° 0 mm 1 m/s 767 mmHg 86%
    19:00 +5°C° 0 mm 1 m/s 767 mmHg 88%
    20:00 +5°C° 0 mm 1 m/s 767 mmHg 90%
    21:00 +5°C° 0 mm 1 m/s 767 mmHg 93%
    22:00 +5°C° 0 mm 1 m/s 767 mmHg 93%
    23:00 +4°C° 0 mm 1 m/s 767 mmHg 94%

    19 Ianuarie, Joi

    Timp Temperatura Precipitaţii Vânt Presiune Umiditate
    00:00 +4°C° 0 mm 1 m/s 767 mmHg 95%
    01:00 +4°C° 0 mm 1 m/s 767 mmHg 95%
    02:00 +4°C° 0 mm 1 m/s 767 mmHg 95%
    03:00 +3°C° 0 mm 0 m/s 767 mmHg 96%
    04:00 +4°C° 0 mm 1 m/s 767 mmHg 96%
    05:00 +4°C° 0 mm 1 m/s 767 mmHg 96%
    06:00 +4°C° 0 mm 1 m/s 767 mmHg 96%
    07:00 +5°C° 0 mm 1 m/s 768 mmHg 92%
    08:00 +6°C° 0 mm 1 m/s 768 mmHg 88%
    09:00 +7°C° 0 mm 1 m/s 768 mmHg 84%
    10:00 +8°C° 0 mm 1 m/s 767 mmHg 75%
    11:00 +8°C° 0 mm 2 m/s 767 mmHg 66%
    12:00 +9°C° 0 mm 2 m/s 766 mmHg 56%
    13:00 +9°C° 0 mm 2 m/s 766 mmHg 53%
    14:00 +10°C° 0 mm 2 m/s 766 mmHg 50%
    15:00 +10°C° 0 mm 2 m/s 766 mmHg 47%
    16:00 +8°C° 0 mm 2 m/s 766 mmHg 53%
    17:00 +8°C° 0 mm 1 m/s 767 mmHg 59%
    18:00 +6°C° 0 mm 1 m/s 767 mmHg 65%
    19:00 +5°C° 0 mm 1 m/s 768 mmHg 67%
    20:00 +5°C° 0 mm 1 m/s 768 mmHg 69%
    21:00 +5°C° 0 mm 1 m/s 768 mmHg 71%
    22:00 +5°C° 0 mm 1 m/s 769 mmHg 72%
    23:00 +5°C° 0 mm 1 m/s 769 mmHg 74%

    20 Ianuarie, Vineri

    Timp Temperatura Precipitaţii Vânt Presiune Umiditate
    00:00 +3°C° 0 mm 2 m/s 769 mmHg 75%
    01:00 +3°C° 0 mm 2 m/s 769 mmHg 79%
    02:00 +3°C° 0 mm 2 m/s 769 mmHg 82%
    03:00 +2°C° 0 mm 2 m/s 770 mmHg 86%
    04:00 +2°C° 0 mm 2 m/s 770 mmHg 88%
    05:00 +3°C° 0 mm 1 m/s 770 mmHg 90%
    06:00 +3°C° 0 mm 1 m/s 771 mmHg 93%
    07:00 +3°C° 0,1 mm 2 m/s 771 mmHg 90%
    08:00 +4°C° 0,1 mm 2 m/s 771 mmHg 88%
    09:00 +5°C° 0,1 mm 2 m/s 772 mmHg 85%
    10:00 +5°C° 0,2 mm 2 m/s 771 mmHg 82%
    11:00 +6°C° 0,2 mm 2 m/s 771 mmHg 78%
    12:00 +6°C° 0,2 mm 2 m/s 771 mmHg 75%
    13:00 +6°C° 0,1 mm 2 m/s 770 mmHg 74%
    14:00 +6°C° 0,1 mm 2 m/s 770 mmHg 73%
    15:00 +6°C° 0,1 mm 2 m/s 770 mmHg 73%
    16:00 +7°C° 0 mm 1 m/s 770 mmHg 77%
    17:00 +6°C° 0 mm 1 m/s 770 mmHg 81%
    18:00 +5°C° 0 mm 1 m/s 771 mmHg 85%
    19:00 +5°C° 0 mm 1 m/s 771 mmHg 87%
    20:00 +4°C° 0 mm 1 m/s 771 mmHg 88%
    21:00 +4°C° 0 mm 1 m/s 771 mmHg 90%
    22:00 +4°C° 0 mm 1 m/s 771 mmHg 90%
    23:00 +4°C° 0 mm 1 m/s 771 mmHg 91%

    21 Ianuarie, Sâmbătă

    Timp Temperatura Precipitaţii Vânt Presiune Umiditate
    00:00 +3°C° 0 mm 0 m/s 771 mmHg 91%
    01:00 +2°C° 0 mm 0 m/s 771 mmHg 91%
    02:00 +2°C° 0 mm 0 m/s 770 mmHg 92%
    03:00 +2°C° 0 mm 0 m/s 770 mmHg 92%
    04:00 +3°C° 0 mm 1 m/s 770 mmHg 93%
    05:00 +2°C° 0 mm 1 m/s 770 mmHg 93%
    06:00 +2°C° 0 mm 1 m/s 770 mmHg 94%
    07:00 +3°C° 0 mm 1 m/s 770 mmHg 89%
    08:00 +4°C° 0 mm 1 m/s 770 mmHg 84%
    09:00 +5°C° 0 mm 1 m/s 770 mmHg 79%
    10:00 +6°C° 0 mm 1 m/s 770 mmHg 71%
    11:00 +6°C° 0 mm 2 m/s 769 mmHg 63%
    12:00 +7°C° 0 mm 2 m/s 768 mmHg 55%
    13:00 +8°C° 0 mm 2 m/s 768 mmHg 53%
    14:00 +8°C° 0 mm 2 m/s 768 mmHg 51%
    15:00 +8°C° 0 mm 2 m/s 768 mmHg 48%
    16:00 +7°C° 0 mm 1 m/s 768 mmHg 55%
    17:00 +6°C° 0 mm 1 m/s 768 mmHg 63%
    18:00 +3°C° 0 mm 0 m/s 769 mmHg 70%
    19:00 +3°C° 0 mm 0 m/s 769 mmHg 71%
    20:00 +2°C° 0 mm 0 m/s 769 mmHg 73%
    21:00 +2°C° 0 mm 0 m/s 770 mmHg 75%
    22:00 +2°C° 0 mm 0 m/s 770 mmHg 76%
    23:00 +1°C° 0 mm 0 m/s 770 mmHg 78%
    Arată mai mult